Simultaneous Nadir Overpasses (SNOs) Predictions

Prediction of SNOs between METOP-B and TERRA Satellite Orbit:

Table of predicted SNOs for the next 14.0 days since TLE Epoch: 10/28/2017
Index Date (METOP-B) Time (METOP-B) Lat,Lon (METOP-B) SZA (METOP-B ) Date (TERRA) Time (TERRA) Lat,Lon (TERRA) SZA (TERRA ) Distance(km) Time Diff (sec)
1 10/28/2017 11:25:04 -81.30,-124.00 82.29 10/28/2017 11:25:17 -81.30,-123.99 82.28 0.11 13
2 10/28/2017 12:15:44 81.31, 43.72 97.78 10/28/2017 12:14:43 81.31, 43.69 97.74 0.61 61
3 10/31/2017 06:59:25 -81.30, -57.42 81.34 10/31/2017 06:59:32 -81.30, -57.61 81.37 3.30 7
4 10/31/2017 07:50:06 81.30, 109.90 98.67 10/31/2017 07:48:58 81.30, 110.05 98.66 2.54 68
5 11/03/2017 01:43:08 81.30,-158.86 99.48 11/03/2017 01:44:22 81.29,-159.04 99.49 3.13 74
6 11/03/2017 02:33:47 -81.31, 9.10 80.44 11/03/2017 02:33:48 -81.31, 9.01 80.45 1.60 1
7 11/03/2017 03:24:27 81.31, 176.81 99.62 11/03/2017 03:23:14 81.31, 176.67 99.57 2.45 73
8 11/05/2017 21:17:30 81.30, -92.40 100.34 11/05/2017 21:18:39 81.29, -92.56 100.35 2.78 69
9 11/05/2017 22:08:10 -81.30, 75.18 79.63 11/05/2017 22:08:06 -81.29, 75.13 79.64 1.26 4
10 11/08/2017 16:51:52 81.30, -25.99 101.15 11/08/2017 16:52:56 81.31, -25.82 101.21 3.00 64




NCC Satellite Simultaneous Nadir Overpasses (SNOs) Prediction Service
